Regional Weather Roundup
Issued by NWS Charleston, SC

Current Version | Previous Version | Graphics & Text | Print | Product List | Glossary On
Versions: 1 2 3 4 5 6 7 8 9 10 11 12 13 14 15 16 17 18 19 20 21 22 23 24 25 26 27 28 29 30 31 32 33 34 35 36 37 38 39 40 41 42 43 44 45 46 47 48 49 50
000 ASUS42 KCHS 040212 RWRCHS REGIONAL WEATHER ROUNDUP NATIONAL WEATHER SERVICE CHARLESTON SC 900 PM EST SAT DEC 03 2016 NOTE: "FAIR" INDICATES FEW OR NO CLOUDS BELOW 12,000 FEET WITH NO SIGNIFICANT WEATHER AND/OR OBSTRUCTIONS TO VISIBILITY. NOT ALL STATIONS ARE QUALITY CONTROLLED. USE DATA WITH CAUTION... ESPECIALLY DEWPOINT OBSERVATIONS. SCZ027-030-031-034>040-042>050-040300- ...SOUTHEAST SOUTH CAROLINA... CITY SKY/WX TMP DP RH WIND PRES REMARKS N CHARLESTON CLOUDY 52 38 58 NE7 30.27R WATERFRONT PRK N/A 53 43 68 NE6 30.26S MOUNT PLEASANT NOT AVBL JOHNS ISLAND CLOUDY 54 41 62 CALM 30.27R PINOPOLIS N/A 54 39 58 NE6 30.18F MONCKS CORNER CLOUDY 48 41 76 CALM 30.27R SUMMERVILLE CLOUDY 50 43 76 CALM 30.29R BEAUFORT MCAS CLOUDY 53 40 61 NE7 30.26S BEAUFORT ARPT CLOUDY 54 41 62 NE9 30.27R HILTON HEAD IS CLOUDY 55 41 58 N7 30.27S WALTERBORO CLOUDY 52 39 62 CALM 30.27S ALLENDALE CLOUDY 52 39 62 CALM 30.27R ...SOUTHERN MIDLANDS AND PEE DEE... CITY SKY/WX TMP DP RH WIND PRES REMARKS GEORGETOWN NOT AVBL KINGSTREE CLOUDY 45 41 87 CALM 30.27F ORANGEBURG CLOUDY 49 40 71 CALM 30.27R BARNWELL NOT AVBL AIKEN LGT RAIN 46 39 76 CALM 30.30R MANNING NOT AVBL COLUMBIA CLOUDY 49 42 77 SW3 30.26S SUMTER CLOUDY 49 41 75 CALM 30.25S FLORENCE CLOUDY 48 41 76 E5 30.28R MYRTLE BEACH CLEAR 46 37 71 CALM 30.30R N MYRTLE BEACH CLOUDY 46 41 82 CALM 30.27R $$ GAZ063-065-086>088-099>101-113>116-118-119-134>141-150-040300- ...SOUTHEAST GEORGIA... CITY SKY/WX TMP DP RH WIND PRES REMARKS SAVANNAH ARPT CLOUDY 55 42 61 NE7 30.26R HUNTER AAF CLOUDY 55 47 73 NE7 30.23R FORT STEWART CLOUDY 55 42 61 CALM 30.23R STATESBORO CLOUDY 55 42 61 CALM 30.26S SYLVANIA CLOUDY N/A N/A N/A CALM 30.27R CLAXTON CLOUDY 55 47 77 CALM 30.26S ...CSRA...CENTRAL AND FAR SOUTHEAST GEORGIA... CITY SKY/WX TMP DP RH WIND PRES REMARKS THOMSON CLOUDY 50 49 98 CALM 30.30S AUGUSTA-BUSH LGT RAIN 52 44 74 CALM 30.27R AUGUSTA-DANIEL LGT RAIN 53 41 63 E3 30.27S SWAINSBORO CLOUDY 54 37 54 E5 30.26R VIDALIA CLOUDY 55 45 67 NE7 30.25S EASTMAN CLOUDY 59 20 22 E5 30.25S HAZLEHURST CLOUDY 59 44 58 CALM 30.23R ALMA CLOUDY 57 46 66 CALM 30.22S WAYCROSS CLOUDY 59 52 76 E7 30.22R JESUP CLOUDY 55 52 88 NE5 30.24R BAXLEY CLOUDY 57 50 77 E5 30.22F BRUNSWICK CLOUDY 59 54 82 NE6 30.22S SAINT SIMONS CLOUDY 61 51 70 NE9 30.21R $$ SCZ027-028-034-036>038-045-046-048>050-GAZ119-141-040300- ...LAKE AND SUPPLEMENTAL COASTAL OBSERVATIONS... STATION/POSITION TIME TEMP WIND PRES WAVE SWELL AIR SEA DIR/SP/G HT/PER HT/PER/DIR (UTC) (F) (DEG/KT/KT) (MB) (FT/S) (FT/S/D) WINYAH BAY NOT AVBL LAKE MURRAY 0120 51 CALM 1024.4 ACE BASIN NERRS 0045 53 20/ 2 1024.0 FORT PULASKI 0148 56 62 50/ 9/ 11 1024.4R SAPELO ISLAND 0100 58 40/ 7 1023.0 $$ ANZ835-935-AMZ111-154-330-350-352-354-370-450-454-472-040300- ...C-MAN AND BUOY OBSERVATIONS... STATION/POSITION TIME TEMP WIND PRES WAVE SWELL AIR SEA DIR/SP/G HT/PER HT/PER/DIR (UTC) (F) (DEG/KT/KT) (MB) (FT/S) (FT/S/D) BUOY 41004 0150 58 75 20/ 14/ 17 1023.6S 3/ 6 2/120/ 8 BUOY 41008 0150 62 65 50/ 17/ 19 1022.8 4/ 5 2/130/ 8 FOLLY BEACH CMAN 0100 54 30/ 12/ 13 1024.8R CAPERS NEARSHORE 0108 54 61 30/ 12/ 14 1024.2R FRIPP NEARSHORE 0108 57 63 30/ 10/ 14 1024.1R STATION/POSITION TIME TEMP WIND PRES WAVE SWELL AIR SEA DIR/SP/G HT/PER HT/PER/DIR (UTC) (F) (DEG/KT/KT) (MB) (FT/S) (FT/S/D) 5E ST. MARYS GA 0130 66 N/A 4/ 5 FRYING PAN BUOY 0140 56 73 360/ 8/ 14 1024.3R BUOY 41025 0150 60 74 360/ 14/ 19 1023.4R 5/ 8 3/ 30/ 8 CAPE LOOKOUT NC 0200 50 340/ 7/ 8 1023.9R BUOY 41002 0150 63 73 360/ 8/ 12 1021.9R 5/ 7 5/ 10/ 7 BUOY 41010 NOT AVBL ST AUGUSTINE FL 0200 68 67 80/ 10/ 11 1022.0S $$

USA.gov is the U.S. government's official web portal to all federal, state and local government web resources and services.